User: anonymous   Login
Location: Nemiskam
(49.4820°N, 111.2775°W)
Time: 08:13:52
(UTC+00:00)
Language:

Envisat - Orbit

View from above orbital plane
View from above orbital plane
View from above satellite
View from above satellite

Ground track
Ground track

The orbit data is extracted from the following two-line orbital elements,

1 27386U 02009A   23028.93376789  .00000293  00000-0  10989-3 0  9998
2 27386  98.2126   4.8044 0001188  88.4188 291.7337 14.38230608 95877
Epoch (UTC): 28 January 2023 22:24:37
Eccentricity: 0.0001188
inclination: 98.2126°
perigee height: 763 km
apogee height: 765 km
right ascension of ascending node: 4.8044°
argument of perigee: 88.4188°
revolutions per day: 14.38230608
mean anomaly at epoch: 291.7337°
orbit number at epoch: 9587

The dashed part of the orbit path shows where the satellite is in the earth's shadow,  

DLR